Anaktuvuk Pass, AK

12:01 PM AKST on January 18, 2017 (GMT -0900)
Anaktuvuk Pass

Weather History for PAKP - February, 2012

Change the Weather History Date:

Sunday, February 19, 2012

  Actual Average Record
Temperature  
Mean Temperature -3 °F -  
Max Temperature 1 °F -1 °F 28 °F (2006)
Min Temperature -7 °F -12 °F -41 °F (2004)
Degree Days  
Heating Degree Days 68    
Moisture  
Dew Point -8 °F    
Average Humidity 80    
Maximum Humidity 92    
Minimum Humidity 71    
Precipitation  
Precipitation 0.00 in - - ()
Sea Level Pressure  
Sea Level Pressure 29.51 in    
Wind  
Wind Speed 0 mph (SSW)    
Max Wind Speed 6 mph    
Max Gust Speed -    
Visibility 10 miles    
Events      
Averages and records for this station are not official NWS values.
T = Trace of Precipitation, MM = Missing Value Source: NWS Daily Summary

Daily Weather History Graph

Daily Weather History Graph

Search for Another Location

Airport or City:

Trip Planner

Search our weather history database for the weather conditions in past years. The results will help you decide how hot, cold, wet, or windy it might be!

Date:

Astronomy

Feb. 19, 2012 Rise Set
Actual Time 9:09 AM AKST 5:33 PM AKST
Civil Twilight 8:09 AM AKST 6:33 PM AKST
Nautical Twilight 7:04 AM AKST 7:38 PM AKST
Astronomical Twilight 5:59 AM AKST 8:44 PM AKST
Moon 8:26 AM AKST (2/19) 3:05 PM AKST (2/19)
Length of Visible Light 10h 23m
Length of Day
8h 23m
Waning Crescent, 5% of the Moon is Illuminated
Feb 19
Waning Crescent
Feb 21
New
Feb 29
First Quarter
Mar 8
Full
Mar 14
Last Quarter

Hourly Weather History & Observations

Time (AKST) Temp. Windchill Dew Point Humidity Pressure Visibility Wind Dir Wind Speed Gust Speed Precip Events Conditions
12:16 AM -2.2 °F - -7.6 °F 78% 29.55 in 10.0 mi Calm Calm - N/A   Partly Cloudy
12:36 AM -2.2 °F - -9.4 °F 71% 29.55 in 5.0 mi Calm Calm - N/A   Partly Cloudy
12:56 AM -2.2 °F - -7.6 °F 78% 29.55 in 10.0 mi Calm Calm - N/A   Clear
1:16 AM -4.0 °F - -9.4 °F 78% 29.55 in 3.0 mi Calm Calm - N/A   Clear
1:36 AM -2.2 °F - -7.6 °F 78% 29.55 in 10.0 mi Calm Calm - N/A   Clear
1:56 AM -2.2 °F - -7.6 °F 78% 29.54 in 10.0 mi Calm Calm - N/A   Clear
2:16 AM -4.0 °F - -9.4 °F 78% 29.55 in 10.0 mi Calm Calm - N/A   Clear
2:36 AM -4.0 °F - -7.6 °F 85% 29.54 in 9.0 mi Calm Calm - N/A   Partly Cloudy
2:56 AM -5.8 °F - -11.2 °F 77% 29.55 in 10.0 mi Calm Calm - N/A   Clear
3:16 AM -4.0 °F - -9.4 °F 78% 29.55 in 10.0 mi Calm Calm - N/A   Clear
3:36 AM -5.8 °F - -9.4 °F 84% 29.54 in 10.0 mi Calm Calm - N/A   Clear
3:56 AM -5.8 °F - -11.2 °F 77% 29.54 in 10.0 mi Calm Calm - N/A   Clear
4:16 AM -5.8 °F - -11.2 °F 77% 29.54 in 10.0 mi Calm Calm - N/A   Clear
4:36 AM -5.8 °F - -9.4 °F 84% 29.54 in 10.0 mi Calm Calm - N/A   Clear
4:56 AM -5.8 °F - -11.2 °F 77% 29.53 in 10.0 mi Calm Calm - N/A   Clear
5:16 AM -5.8 °F - -11.2 °F 77% 29.53 in 10.0 mi Calm Calm - N/A   Clear
5:36 AM -5.8 °F - -11.2 °F 77% 29.53 in 10.0 mi Calm Calm - N/A   Clear
5:56 AM -5.8 °F - -9.4 °F 84% 29.53 in 10.0 mi Calm Calm - N/A   Clear
6:16 AM -5.8 °F - -11.2 °F 77% 29.53 in 10.0 mi Calm Calm - N/A   Clear
6:36 AM -5.8 °F - -11.2 °F 77% 29.53 in 10.0 mi Calm Calm - N/A   Clear
6:56 AM -5.8 °F - -11.2 °F 77% 29.53 in 10.0 mi Calm Calm - N/A   Clear
7:16 AM -5.8 °F - -9.4 °F 84% 29.52 in 10.0 mi Calm Calm - N/A   Clear
7:36 AM -5.8 °F - -11.2 °F 77% 29.52 in 10.0 mi Calm Calm - N/A   Clear
7:56 AM -5.8 °F - -13.0 °F 71% 29.52 in 10.0 mi Calm Calm - N/A   Clear
8:16 AM -7.6 °F - -11.2 °F 84% 29.52 in 10.0 mi Calm Calm - N/A   Clear
8:36 AM -5.8 °F - -11.2 °F 77% 29.52 in 10.0 mi Calm Calm - N/A   Clear
8:56 AM -5.8 °F - -9.4 °F 84% 29.52 in 10.0 mi Calm Calm - N/A   Clear
9:16 AM -7.6 °F - -13.0 °F 77% 29.52 in 10.0 mi Calm Calm - N/A   Clear
9:36 AM -7.6 °F -16.5 °F -13.0 °F 77% 29.53 in 8.0 mi SW 3.5 mph - N/A   Clear
9:56 AM -7.6 °F - -11.2 °F 84% 29.52 in 10.0 mi Calm Calm - N/A   Clear
10:16 AM -7.6 °F - -13.0 °F 77% 29.52 in 10.0 mi Calm Calm - N/A   Clear
10:36 AM -5.8 °F - -9.4 °F 84% 29.52 in 10.0 mi Calm Calm - N/A   Clear
10:56 AM -5.8 °F - -9.4 °F 84% 29.52 in 9.0 mi Calm Calm - N/A   Clear
11:16 AM -4.0 °F - -7.6 °F 85% 29.52 in 10.0 mi Calm Calm - N/A   Clear
11:36 AM -4.0 °F - -5.8 °F 92% 29.51 in 10.0 mi Calm Calm - N/A   Clear
11:56 AM -4.0 °F - -7.6 °F 85% 29.52 in 5.0 mi Calm Calm - N/A   Clear
12:16 PM -5.8 °F - -9.4 °F 84% 29.52 in 10.0 mi Calm Calm - N/A   Clear
12:36 PM -4.0 °F -14.6 °F -7.6 °F 85% 29.52 in 10.0 mi SSW 4.6 mph - N/A   Clear
12:56 PM -2.2 °F - -5.8 °F 85% 29.52 in 10.0 mi Calm Calm - N/A   Clear
1:16 PM -0.4 °F -8.3 °F -5.8 °F 78% 29.52 in 10.0 mi SSW 3.5 mph - N/A   Clear
1:36 PM -0.4 °F -10.4 °F -4.0 °F 85% 29.51 in 10.0 mi SSW 4.6 mph - N/A   Clear
1:56 PM -2.2 °F -12.5 °F -7.6 °F 78% 29.51 in 10.0 mi South 4.6 mph - N/A   Clear
2:16 PM -2.2 °F - -5.8 °F 85% 29.51 in 10.0 mi Calm Calm - N/A   Clear
2:36 PM -2.2 °F - -5.8 °F 85% 29.50 in 10.0 mi Calm Calm - N/A   Clear
3:16 PM -0.4 °F - -4.0 °F 85% 29.50 in 10.0 mi Calm Calm - N/A   Clear
3:36 PM -0.4 °F - -5.8 °F 78% 29.50 in 10.0 mi Calm Calm - N/A   Clear
3:56 PM -0.4 °F - -4.0 °F 85% 29.49 in 10.0 mi Calm Calm - N/A   Clear
4:16 PM -0.4 °F -8.3 °F -4.0 °F 85% 29.49 in 10.0 mi South 3.5 mph - N/A   Clear
4:36 PM 1.4 °F - -2.2 °F 85% 29.49 in 10.0 mi Calm Calm - N/A   Clear
4:56 PM -0.4 °F -12.0 °F -4.0 °F 85% 29.48 in 10.0 mi South 5.8 mph - N/A   Clear
5:16 PM -0.4 °F - -7.6 °F 72% 29.49 in 10.0 mi Calm Calm - N/A   Clear
5:36 PM -0.4 °F - -5.8 °F 78% 29.49 in 10.0 mi Calm Calm - N/A   Clear
5:56 PM -0.4 °F - -7.6 °F 72% 29.48 in 10.0 mi Calm Calm - N/A   Clear
6:16 PM -0.4 °F - -4.0 °F 85% 29.48 in 10.0 mi Calm Calm - N/A   Clear
6:36 PM -0.4 °F - -7.6 °F 72% 29.48 in 10.0 mi Calm Calm - N/A   Clear
6:56 PM -2.2 °F - -7.6 °F 78% 29.47 in 10.0 mi Calm Calm - N/A   Clear
7:16 PM -0.4 °F -8.3 °F -7.6 °F 72% 29.47 in 10.0 mi SW 3.5 mph - N/A   Clear
7:36 PM -0.4 °F - -2.2 °F 92% 29.46 in 10.0 mi Calm Calm - N/A   Clear
7:56 PM -0.4 °F - -7.6 °F 72% 29.46 in 10.0 mi Calm Calm - N/A   Clear
8:16 PM -0.4 °F -8.3 °F -5.8 °F 78% 29.45 in 10.0 mi SW 3.5 mph - N/A   Clear
8:36 PM -2.2 °F -10.4 °F -5.8 °F 85% 29.45 in 10.0 mi SW 3.5 mph - N/A   Clear
8:56 PM -2.2 °F - -7.6 °F 78% 29.44 in 10.0 mi Calm Calm - N/A   Clear
9:16 PM -2.2 °F - -9.4 °F 71% 29.44 in 10.0 mi Calm Calm - N/A   Clear
9:36 PM -2.2 °F - -7.6 °F 78% 29.44 in 10.0 mi Calm Calm - N/A   Clear
9:56 PM -4.0 °F - -7.6 °F 85% 29.43 in 10.0 mi Calm Calm - N/A   Clear
10:16 PM -2.2 °F - -9.4 °F 71% 29.43 in 10.0 mi Calm Calm - N/A   Clear
10:36 PM -2.2 °F -12.5 °F -11.2 °F 66% 29.43 in 10.0 mi South 4.6 mph - N/A   Clear
10:56 PM -0.4 °F -8.3 °F -9.4 °F 66% 29.42 in 10.0 mi SW 3.5 mph - N/A   Clear
11:16 PM -2.2 °F - -11.2 °F 66% 29.42 in 10.0 mi Calm Calm - N/A   Clear
11:36 PM -2.2 °F - -13.0 °F 60% 29.41 in 10.0 mi Calm Calm - N/A   Clear
11:56 PM -2.2 °F - -9.4 °F 71% 29.41 in 10.0 mi Calm Calm - N/A   Clear